Location: Unspecified
(0.0000°N, 0.0000°E)
Time: 00:05:48
(UTC+02:00)

Tiros 1 despin weight - All Passes

Search period start: 18 October 2017 00:00
Search period end: 28 October 2017 00:00
Orbit: 594 x 644 km, 48.2° (Epoch: 17 October)

Date Brightness Start Highest point End Pass type
(mag) Time Alt. Az. Time Alt. Az. Time Alt. Az.
18 Oct - 06:09:50 10° NNW 06:14:26 70° NE 06:18:57 10° SE visible
18 Oct - 18:18:12 10° SW 18:22:41 70° NW 18:27:12 10° NNE daylight
19 Oct - 04:47:09 10° NNE 04:49:49 15° NE 04:52:26 10° E visible
19 Oct - 06:26:56 10° WNW 06:31:16 41° SW 06:35:33 10° SSE visible
19 Oct - 16:54:34 10° S 16:58:08 23° SE 17:01:44 10° ENE daylight
19 Oct - 18:35:52 10° WSW 18:39:32 25° NW 18:43:16 10° N daylight
20 Oct - 05:02:24 10° NNW 05:06:43 39° NE 05:10:59 10° ESE visible
20 Oct - 06:45:24 10° W 06:48:09 16° SW 06:50:52 10° SSW visible
20 Oct - 17:10:34 10° SSW 17:14:59 65° SE 17:19:28 10° NE daylight
21 Oct - 05:18:57 10° NW 05:23:34 74° SW 05:28:08 10° SE visible
21 Oct - 15:48:13 10° SSE 15:50:26 13° SE 15:52:38 10° E daylight
21 Oct - 17:27:36 10° WSW 17:31:50 43° NW 17:36:07 10° NNE daylight
22 Oct - 03:55:19 10° N 03:59:00 23° NE 04:02:38 10° ESE night (unlit)
22 Oct - 05:36:32 10° WNW 05:40:25 26° SW 05:44:17 10° S visible
22 Oct - 16:03:14 10° SSW 16:07:19 35° SE 16:11:26 10° ENE daylight
22 Oct - 17:45:58 10° W 17:48:44 16° NW 17:51:32 10° N daylight
23 Oct - 04:11:16 10° NNW 04:15:52 62° NE 04:20:25 10° SE night (unlit)
23 Oct - 16:19:42 10° SW 16:24:09 78° NW 16:28:38 10° NE daylight
24 Oct - 02:48:54 10° NNE 02:51:14 14° NE 02:53:34 10° E night (unlit)
24 Oct - 04:28:15 10° NW 04:32:43 46° SW 04:37:08 10° SSE night (unlit)
24 Oct - 14:56:18 10° S 14:59:37 21° SE 15:02:57 10° E daylight
24 Oct - 16:37:14 10° WSW 16:41:00 27° NW 16:44:50 10° N daylight
25 Oct - 03:03:54 10° NNW 03:08:10 35° NE 03:12:23 10° ESE night (unlit)
25 Oct - 04:46:28 10° W 04:49:35 18° SW 04:52:41 10° S night (unlit)
25 Oct - 15:12:08 10° SSW 15:16:28 57° SE 15:20:51 10° NE daylight
25 Oct - 16:57:37 10° NW 16:57:57 10° NW 16:58:16 10° NW daylight
26 Oct - 03:20:20 10° NW 03:25:00 83° SW 03:29:38 10° SE night (unlit)
26 Oct - 13:50:15 10° SSE 13:51:53 12° SE 13:53:31 10° ESE daylight
26 Oct - 15:29:02 10° SW 15:33:18 48° NW 15:37:37 10° NNE daylight
27 Oct - 01:56:54 10° N 02:00:24 21° NE 02:03:54 10° E night (unlit)
27 Oct - 03:37:46 10° WNW 03:41:51 30° SW 03:45:54 10° S night (unlit)
27 Oct - 14:04:51 10° SSW 14:08:47 31° SE 14:12:44 10° ENE daylight
27 Oct - 15:47:11 10° W 15:50:11 18° NW 15:53:12 10° N daylight
